Weather History for KBPC - February, 2014

Change the Weather History Date:

Thursday, February 6, 2014

  Actual Average (KBGD) Record (KBGD)
Temperature  
Mean Temperature 8 °F 41 °F  
Max Temperature 14 °F 54 °F 82 °F (2009)
Min Temperature 3 °F 28 °F -3 °F (1982)
Degree Days  
Heating Degree Days 56 24  
Month to date heating degree days 147  
Since 1 July heating degree days 2499  
Cooling Degree Days 0 0  
Month to date cooling degree days 0  
Year to date cooling degree days 0  
Moisture  
Dew Point 2 °F    
Average Humidity 77    
Maximum Humidity 85    
Minimum Humidity 67    
Precipitation  
Precipitation 0.00 in 0.03 in 0.51 in (2005)
Month to date precipitation 0.15  
Year to date precipitation 0.74  
Snow  
Snow 0.00 in - 3.00 in (2002)
Month to date snowfall  
Since 1 July snowfall  
Snow Depth -    
Sea Level Pressure  
Sea Level Pressure 30.37 in    
Wind  
Wind Speed 7 mph (ESE)    
Max Wind Speed 10 mph    
Max Gust Speed -    
Visibility 9 miles    
Events Snow    
T = Trace of Precipitation, MM = Missing Value Source: NWS Daily Summary

Daily Weather History Graph

Daily Weather History Graph

Search for Another Location

Airport or City:

Trip Planner

Search our weather history database for the weather conditions in past years. The results will help you decide how hot, cold, wet, or windy it might be!

Date:

Astronomy

Feb. 06, 2014 Rise Set
Actual Time 7:40 AM CST 6:16 PM CST
Civil Twilight 7:13 AM CST 6:43 PM CST
Nautical Twilight 6:43 AM CST 7:13 PM CST
Astronomical Twilight 6:13 AM CST 7:43 PM CST
Moon 11:50 AM CST (2/6) 12:57 AM CST (2/6)
Length of Visible Light 11h 29m
Length of Day
10h 36m
Waxing Crescent, 49% of the Moon is Illuminated
Feb 6
Waxing Crescent
Feb 6
First Quarter
Feb 14
Full
Feb 22
Last Quarter
Mar 1
New

Hourly Weather History & Observations

Time (CST) Temp. Windchill Dew Point Humidity Pressure Visibility Wind Dir Wind Speed Gust Speed Precip Events Conditions
12:15 AM 5.0 °F -6.9 °F 1.4 °F 85% 30.51 in 3.0 mi NNE 6.9 mph - N/A Snow Light Snow
12:35 AM 5.0 °F -9.1 °F 1.4 °F 85% 30.51 in 4.0 mi NNE 9.2 mph - N/A Snow Light Snow
12:55 AM 5.0 °F -9.1 °F 1.4 °F 85% 30.50 in 4.0 mi NNE 9.2 mph - N/A Snow Light Snow
1:15 AM 5.0 °F -8.1 °F 1.4 °F 85% 30.50 in 3.0 mi NNE 8.1 mph - N/A Snow Light Snow
1:35 AM 5.0 °F -6.9 °F 1.4 °F 85% 30.50 in 3.0 mi NNE 6.9 mph - N/A Snow Light Snow
1:55 AM 5.0 °F -8.1 °F 1.4 °F 85% 30.50 in 3.0 mi NNE 8.1 mph - N/A Snow Light Snow
2:15 AM 5.0 °F -5.6 °F 1.4 °F 85% 30.49 in 5.0 mi NE 5.8 mph - N/A Snow Light Snow
2:35 AM 5.0 °F -6.9 °F 1.4 °F 85% 30.50 in 4.0 mi NE 6.9 mph - N/A Snow Light Snow
2:55 AM 5.0 °F -5.6 °F 1.4 °F 85% 30.49 in 5.0 mi NE 5.8 mph - N/A Snow Light Snow
3:15 AM 5.0 °F -6.9 °F 1.4 °F 85% 30.49 in 5.0 mi NE 6.9 mph - N/A Snow Light Snow
3:35 AM 5.0 °F -8.1 °F 1.4 °F 85% 30.49 in 7.0 mi NE 8.1 mph - N/A Snow Light Snow
3:55 AM 5.0 °F -9.1 °F -0.4 °F 78% 30.47 in 7.0 mi NE 9.2 mph - N/A Snow Light Snow
4:15 AM 5.0 °F -6.9 °F -0.4 °F 78% 30.47 in 5.0 mi NE 6.9 mph - N/A Snow Light Snow
4:35 AM 3.2 °F -7.8 °F -0.4 °F 85% 30.47 in 10.0 mi ENE 5.8 mph - N/A   Mostly Cloudy
4:55 AM 3.2 °F -4.2 °F -0.4 °F 85% 30.47 in 7.0 mi ENE 3.5 mph - N/A Snow Light Snow
5:15 AM 5.0 °F -6.9 °F 1.4 °F 85% 30.46 in 10.0 mi ENE 6.9 mph - N/A Snow Light Snow
5:35 AM 5.0 °F -5.6 °F -0.4 °F 78% 30.45 in 10.0 mi ENE 5.8 mph - N/A   Overcast
5:55 AM 5.0 °F -6.9 °F 1.4 °F 85% 30.45 in 10.0 mi East 6.9 mph - N/A   Overcast
6:15 AM 5.0 °F -5.6 °F -0.4 °F 78% 30.45 in 10.0 mi ENE 5.8 mph - N/A   Overcast
6:35 AM 5.0 °F -6.9 °F -0.4 °F 78% 30.45 in 10.0 mi ENE 6.9 mph - N/A   Overcast
6:55 AM 5.0 °F -5.6 °F -0.4 °F 78% 30.46 in 10.0 mi ENE 5.8 mph - N/A   Overcast
7:15 AM 5.0 °F -5.6 °F -0.4 °F 78% 30.46 in 10.0 mi NE 5.8 mph - N/A   Overcast
7:35 AM 5.0 °F -5.6 °F -0.4 °F 78% 30.46 in 10.0 mi East 5.8 mph - N/A   Overcast
7:55 AM 5.0 °F -5.6 °F -0.4 °F 78% 30.46 in 10.0 mi ENE 5.8 mph - N/A   Overcast
8:15 AM 5.0 °F -5.6 °F -0.4 °F 78% 30.46 in 10.0 mi East 5.8 mph - N/A   Overcast
8:35 AM 5.0 °F -5.6 °F -0.4 °F 78% 30.45 in 10.0 mi East 5.8 mph - N/A   Overcast
8:55 AM 5.0 °F -5.6 °F -0.4 °F 78% 30.45 in 10.0 mi East 5.8 mph - N/A   Overcast
9:15 AM 5.0 °F -5.6 °F -0.4 °F 78% 30.45 in 10.0 mi ENE 5.8 mph - N/A   Overcast
9:35 AM 5.0 °F -5.6 °F -0.4 °F 78% 30.45 in 10.0 mi East 5.8 mph - N/A   Overcast
9:55 AM 5.0 °F -4.1 °F -0.4 °F 78% 30.46 in 10.0 mi East 4.6 mph - N/A Snow Light Snow
10:15 AM 5.0 °F -4.1 °F -0.4 °F 78% 30.46 in 10.0 mi East 4.6 mph - N/A Snow Light Snow
10:35 AM 6.8 °F -2.0 °F -0.4 °F 72% 30.47 in 10.0 mi ESE 4.6 mph - N/A   Overcast
10:55 AM 6.8 °F -3.5 °F -0.4 °F 72% 30.46 in 10.0 mi ESE 5.8 mph - N/A   Overcast
11:15 AM 8.6 °F 2.0 °F -0.4 °F 67% 30.45 in 10.0 mi ESE 3.5 mph - N/A Snow Light Snow
11:35 AM 8.6 °F -1.3 °F -0.4 °F 67% 30.43 in 10.0 mi SE 5.8 mph - N/A   Mostly Cloudy
11:55 AM 8.6 °F -2.6 °F -0.4 °F 67% 30.44 in 10.0 mi SE 6.9 mph - N/A   Mostly Cloudy
12:15 PM 8.6 °F -1.3 °F -0.4 °F 67% 30.44 in 10.0 mi SSE 5.8 mph - N/A   Overcast
12:35 PM 8.6 °F -1.3 °F -0.4 °F 67% 30.41 in 10.0 mi South 5.8 mph - N/A   Overcast
12:55 PM 10.4 °F 0.8 °F 1.4 °F 67% 30.38 in 10.0 mi ESE 5.8 mph - N/A   Overcast
1:15 PM 10.4 °F 0.8 °F 1.4 °F 67% 30.36 in 10.0 mi SE 5.8 mph - N/A   Scattered Clouds
1:35 PM 10.4 °F -0.4 °F 1.4 °F 67% 30.35 in 10.0 mi SE 6.9 mph - N/A   Mostly Cloudy
1:55 PM 10.4 °F 0.8 °F 3.2 °F 73% 30.33 in 10.0 mi SE 5.8 mph - N/A   Overcast
2:15 PM 10.4 °F -1.5 °F 3.2 °F 73% 30.32 in 10.0 mi SSE 8.1 mph - N/A   Overcast
2:35 PM 10.4 °F -0.4 °F 3.2 °F 73% 30.31 in 10.0 mi SSE 6.9 mph - N/A   Overcast
2:55 PM 10.4 °F -1.5 °F 3.2 °F 73% 30.31 in 10.0 mi South 8.1 mph - N/A   Overcast
3:15 PM 10.4 °F -0.4 °F 3.2 °F 73% 30.30 in 10.0 mi SSE 6.9 mph - N/A   Overcast
3:35 PM 12.2 °F 2.9 °F 3.2 °F 67% 30.29 in 10.0 mi SSE 5.8 mph - N/A   Overcast
3:55 PM 12.2 °F 0.7 °F 3.2 °F 67% 30.29 in 10.0 mi SE 8.1 mph - N/A   Overcast
4:15 PM 12.2 °F 1.7 °F 3.2 °F 67% 30.28 in 10.0 mi SSE 6.9 mph - N/A   Overcast
4:35 PM 12.2 °F -0.2 °F 5.0 °F 73% 30.27 in 10.0 mi SSE 9.2 mph - N/A   Overcast
4:55 PM 12.2 °F 0.7 °F 5.0 °F 73% 30.27 in 10.0 mi SSE 8.1 mph - N/A   Overcast
5:15 PM 12.2 °F 1.7 °F 5.0 °F 73% 30.26 in 10.0 mi SSE 6.9 mph - N/A   Overcast
5:35 PM 12.2 °F 0.7 °F 5.0 °F 73% 30.26 in 10.0 mi SSE 8.1 mph - N/A   Overcast
5:55 PM 12.2 °F 0.7 °F 5.0 °F 73% 30.26 in 10.0 mi South 8.1 mph - N/A   Overcast
6:15 PM 12.2 °F -0.2 °F 5.0 °F 73% 30.26 in 10.0 mi South 9.2 mph - N/A   Overcast
6:35 PM 12.2 °F 1.7 °F 5.0 °F 73% 30.27 in 10.0 mi SSE 6.9 mph - N/A   Overcast
6:55 PM 12.2 °F 1.7 °F 6.8 °F 79% 30.26 in 10.0 mi SE 6.9 mph - N/A   Overcast
7:15 PM 12.2 °F 1.7 °F 6.8 °F 79% 30.25 in 10.0 mi ESE 6.9 mph - N/A   Overcast
7:35 PM 14.0 °F 3.9 °F 8.6 °F 79% 30.25 in 10.0 mi SE 6.9 mph - N/A   Overcast
7:55 PM 14.0 °F 3.9 °F 8.6 °F 79% 30.25 in 10.0 mi ESE 6.9 mph - N/A   Overcast
8:15 PM 14.0 °F 2.0 °F 8.6 °F 79% 30.24 in 10.0 mi ESE 9.2 mph - N/A   Overcast
8:35 PM 12.2 °F 0.7 °F 6.8 °F 79% 30.24 in 10.0 mi ESE 8.1 mph - N/A   Overcast
8:55 PM 12.2 °F -1.0 °F 6.8 °F 79% 30.23 in 10.0 mi ESE 10.4 mph - N/A   Overcast
9:15 PM 12.2 °F -1.0 °F 6.8 °F 79% 30.23 in 10.0 mi ESE 10.4 mph - N/A   Overcast
9:35 PM 12.2 °F -1.0 °F 6.8 °F 79% 30.23 in 10.0 mi ESE 10.4 mph - N/A   Overcast
9:55 PM 12.2 °F 0.7 °F 6.8 °F 79% 30.23 in 10.0 mi SE 8.1 mph - N/A   Overcast
10:15 PM 12.2 °F -0.2 °F 5.0 °F 73% 30.23 in 10.0 mi SE 9.2 mph - N/A   Overcast
10:35 PM 10.4 °F -1.5 °F 5.0 °F 79% 30.23 in 10.0 mi SE 8.1 mph - N/A   Overcast
10:55 PM 10.4 °F -1.5 °F 5.0 °F 79% 30.23 in 10.0 mi SE 8.1 mph - N/A   Overcast
11:15 PM 10.4 °F 0.8 °F 5.0 °F 79% 30.23 in 10.0 mi SE 5.8 mph - N/A   Overcast
11:35 PM 10.4 °F -1.5 °F 5.0 °F 79% 30.23 in 10.0 mi SSE 8.1 mph - N/A Snow Light Snow
11:55 PM 10.4 °F -0.4 °F 5.0 °F 79% 30.23 in 7.0 mi SE 6.9 mph - N/A Snow Light Snow